Regional Weather Roundup
Issued by NWS

Home | Current Version | Previous Version | Text Only | Print | Product List | Glossary On
Versions: 1 2 3 4 5 6 7 8 9 10 11 12 13 14 15 16 17 18 19 20 21 22 23 24 25 26 27 28 29 30 31 32 33 34 35 36 37 38 39 40 41 42 43 44 45 46 47 48 49 50
000
ASUS43 KTOP 210808
RWRKS

WEATHER ROUNDUP FOR KANSAS
NATIONAL WEATHER SERVICE GOODLAND KS
200 AM CST WED FEB 21 2018

NOTE:  "FAIR" INDICATES FEW OR NO CLOUDS BELOW 12,000 FEET WITH NO
SIGNIFICANT WEATHER AND/OR OBSTRUCTIONS TO VISIBILITY.

KSZ001>006-013>018-027>032-041>047-210900-
NORTHWEST KANSAS

CITY           SKY/WX    TMP DP  RH WIND       PRES   REMARKS
GOODLAND       CLEAR      3  -3  76 W3        30.34S
HAYS           CLOUDY    13   4  67 N15       30.46R WCI  -3
HILL CITY      CLOUDY     8   1  73 CALM      30.47R
RUSSELL        CLOUDY    16   5  62 N15       30.46R WCI   1
$$

KSZ061>065-074>080-084>089-210900-
SOUTHWEST KANSAS

CITY           SKY/WX    TMP DP  RH WIND       PRES   REMARKS
DODGE CITY     CLOUDY    14   1  56 N12       30.40S WCI   0
ELKHART        PTCLDY    19   3  51 N9        30.33S
GARDEN CITY    CLOUDY    14   0  53 N12       30.39S WCI   0
GREAT BEND     CLOUDY    14   6  70 N13       30.46R WCI   0
LIBERAL        CLOUDY    18   1  47 N18       30.37R WCI   2
PRATT          CLOUDY    16   5  61 N18       30.42F WCI   0
$$

KSZ066>073-081>083-090>101-210900-
SOUTHEAST KANSAS

CITY           SKY/WX    TMP DP  RH WIND       PRES   REMARKS
COFFEYVILLE    CLOUDY    24  20  84 N16G22    30.38R WCI  11
HUTCHINSON     CLOUDY    16   9  74 N14G22    30.45R WCI   2
MEDICINE LODGE   N/A     19   9  65 N17G28    30.42F WCI   4
NEWTON         CLOUDY    14  10  84 N15       30.43R WCI  -1
PARSONS        CLOUDY    23  19  85 N12G20    30.39R WCI  12
WICHITA INTL   CLOUDY    19  12  74 N18G25    30.43R WCI   4
WICHITA JABRA  CLOUDY    16  13  88 N15       30.43R WCI   1
WICHITA MCCONL CLOUDY    17  11  77 N15       30.42R WCI   3
WINFIELD       CLOUDY    20  17  88 N15       30.42R WCI   6
$$

KSZ007>012-019>026-033>040-048>060-102>105-210900-
NORTHEAST KANSAS

CITY           SKY/WX    TMP DP  RH WIND       PRES   REMARKS
CONCORDIA      CLOUDY    11   4  73 N12       30.49R WCI  -3
EMPORIA        CLOUDY    16  11  80 N13       30.43R WCI   2
LAWRENCE       MOCLDY    18  13  80 NW14      30.45R WCI   4
MANHATTAN      CLOUDY    17   9  70 N7        30.49R
MARYSVILLE     CLOUDY    12   5  73 N12       30.49R WCI  -2
OLATHE IND     CLOUDY    17  14  88 N15       30.42R WCI   2
OLATHE EXE     CLOUDY    18  14  84 N13G23    30.39S WCI   5
SALINA         CLOUDY    16   8  71 N13       30.50R WCI   2
TOPEKA BILLARD CLEAR     17  12  80 N9        30.47R
TOPEKA FORBES  CLOUDY    18  12  77 N13       30.44R WCI   5
$$




USA.gov is the U.S. government's official web portal to all federal, state and local government web resources and services.